Regional Weather Roundup
Issued by NWS

Home | Current Version | Previous Version | Text Only | Print | Product List | Glossary On
Versions: 1 2 3 4 5 6 7 8 9 10 11 12 13 14 15 16 17 18 19 20 21 22 23 24 25 26 27 28 29
000
ASCA42 TJSJ 301210
RWRPR
PUERTO RICO/U.S. VIRGIN ISLANDS HOURLY WEATHER ROUNDUP
NATIONAL WEATHER SERVICE SAN JUAN PR
800 AM AST SAT APR 30 2016

PRZ001-004-301300-
PUERTO RICO

CITY           SKY/WX    TMP DP  RH WIND       PRES   REMARKS
SAN JUAN LMM   CLOUDY    75  73  94 SE3       29.92F
PONCE          RAIN      75  75 100 S6        29.93
AGUADILLA      PTSUNNY   75  72  88 SE5       29.92S
CEIBA          LGT RAIN  75  75 100 S9        29.97R FOG
$$

PRZ006-007-301300-
U.S. VIRGIN ISLANDS

CITY           SKY/WX    TMP DP  RH WIND       PRES   REMARKS
CHARLOTTE AMA  SUNNY     82  73  74 SE10      29.93R
CHRISTIANSTED  MOSUNNY   82  73  74 SE9       29.94R
$$

HOURLY WEATHER ROUNDUP FOR THE NEWS MEDIA

CITY           SKY/WX    TMP DP  RH WIND       PRES   REMARKS
ORLANDO        SUNNY     74  69  85 SE5       29.98R
NEW YORK       CLOUDY    48  40  73 N9        30.23S
NEWARK         CLOUDY    45  41  86 NE8       30.22R
CHICAGO        CLOUDY    46  42  86 E9        30.07R FOG
HARTFORD       SUNNY     48  37  65 CALM      30.22R
BOSTON         SUNNY     48  35  60 W7        30.24R
DALLAS         CLOUDY    64  60  87 N6        29.73R
PHILADELPHIA   CLOUDY    50  38  63 NE10      30.22R
LOS ANGELES    CLOUDY    57  49  74 S7        29.83F
WASHINGTON DC  CLOUDY    51  49  92 NE5       30.19R FOG



USA.gov is the U.S. government's official web portal to all federal, state and local government web resources and services.